SL-12 R/B(2), 38104

Orbit data source: Space-Track

SL-12 R/B(2), 38104 is space debris in GEO originally from a launch on Fri, 30 Mar 2012 UTC launched from the Tyuratam Missile And Space Complex (TTMTR). Debris objects in space refer to the collection of defunct objects orbiting the Earth. Examples of debris include non-operational satellites, rocket bodies, and fragments generated from explosions, collisions, or faulty payload assembly.

Not visible in the next 10 days
Identifier
38104, 2012-012D
Orbit
GEO
Country
Flag of CISCIS
Related business
Manufacturer
RKKE
Mission
Spacecraft
Bus & Motor
BLOK DM2, Unknown motor
Mass
2,440 kg wet, 2,440 kg dry
Launch date (UTC)
2012-03-30 (13 years ago)
Launch vehicle
Unknown
Launch site
Tyuratam Missile And Space Complex (TTMTR)
Object type
Payload
Rocket body
Debris
Shape & HBR
Cyl, 3.5 m
Radar Cross Section
26.008 m², Large (>1 m²)

Expand to show TLE details & history
Last TLE update: 13 hours ago

TLE from 13 hours ago
0 SL-12 R/B(2)
1 38104U 12012D   25260.74662641  .00000029  00000-0  00000-0 0  9994
2 38104   8.2050  59.2137 0010429 291.0125  95.4181  1.00268458 49337
Epoch: 2025-09-17T17:55Z
TLE epoch observation values (Epoch: 2025-09-17T17:55:08.521Z)
Latitude
3.63916°
Longitude
179.81659°
Altitude
35,790.855 km
Speed
3.074 km/s
True Right ascension
05h 42m 04s
True Declination
3° 38' 08"
Sunlit
Object was in daylight at epoch
Visualization orbit readout
Latitude
Unknown
Longitude
Unknown
Altitude
Unknown
Speed
Unknown
Apparent Right ascension
Unknown
Apparent Declination
Unknown
Sunlit
N/A
Visualization observer readout
Local Sidereal Time
00:07:30
Azimuth
Unknown
Elevation
Unknown
Doppler factor
Unknown
Orbital elements
Apogee altitude
35,832.542 km
Perigee altitude
35,744.59 km
Semi-major axis
42,166.703 km
Eccentricity
0.00104
Inclination
8.205°
RAAN
59.2137°
Arg. of periapsis
291.0125°
True anomaly
95.53706°
Mean anomaly
95.4181°
Eccentric anomaly
95.47758°
Mean motion
0.25066 °/min
Orbital period
1,436.2 mins
BSTAR
0
Loading maneuver chart data...
Computing Atmospheric mass density...
Loading historical data...
Loading historical data...
Loading historical data...
Loading historical data...
Loading historical data...
Loading historical data...
Loading historical data...

Documentation

Showing up to 5 results
|